This is the latest recevied weather packets stored in our database for station/object K8GLX. If no packets are shown the sender has not sent any weather packets the latest 10 day(s).
| Time | Temp. | Humidity | Pressure | Rain* | Wind** | Luminosity | Snow |
|---|---|---|---|---|---|---|---|
| 1777862829 | 12.22° C | 53% | 1012 hPa | 0 mm | - | 0 W/m² | - |
| 1777862534 | 12.22° C | 54% | 1012 hPa | 0 mm | - | 0 W/m² | - |
| 1777862229 | 12.22° C | 61% | 1012 hPa | 0 mm | - | 0 W/m² | - |
| 1777861935 | 12.22° C | 63% | 1012 hPa | 0 mm | - | 0 W/m² | - |
| 1777861629 | 12.22° C | 64% | 1012.1 hPa | 0 mm | - | 0 W/m² | - |
| 1777861335 | 12.22° C | 65% | 1012 hPa | 0 mm | - | 0 W/m² | - |
| 1777861029 | 12.22° C | 64% | 1012 hPa | 0 mm | - | 0 W/m² | - |
| 1777860874 | 12.78° C | 60% | 1012 hPa | 0 mm | - | 0 W/m² | - |
| 1777860428 | 13.33° C | 48% | 1011.9 hPa | 0 mm | - | 0 W/m² | - |
| 1777860135 | 13.33° C | 44% | 1011.6 hPa | 0 mm | - | 0 W/m² | - |
| 1777859829 | 13.33° C | 44% | 1011.6 hPa | 0 mm | - | 0 W/m² | - |
| 1777859534 | 13.33° C | 43% | 1011.5 hPa | 0 mm | - | 0 W/m² | - |
| 1777859228 | 13.33° C | 43% | 1011.6 hPa | 0 mm | - | 0 W/m² | - |
| 1777858934 | 13.89° C | 42% | 1011.5 hPa | 0 mm | - | 0 W/m² | - |
| 1777858631 | 13.89° C | 42% | 1011.4 hPa | 0 mm | - | 0 W/m² | - |
| 1777858566 | 13.89° C | 42% | 1011.5 hPa | 0 mm | - | 0 W/m² | - |
| 1777858150 | 13.89° C | 41% | 1011.6 hPa | 0 mm | - | 0 W/m² | - |
| 1777857862 | 13.89° C | 41% | 1011.2 hPa | 0 mm | - | 0 W/m² | - |
| 1777857429 | 13.89° C | 41% | 1011.3 hPa | 0 mm | - | 0 W/m² | - |
| 1777857262 | 13.89° C | 41% | 1011.3 hPa | 0 mm | - | 0 W/m² | - |
| 1777856828 | 14.44° C | 40% | 1011.4 hPa | 0 mm | - | 0 W/m² | - |
| 1777856662 | 14.44° C | 40% | 1011.2 hPa | 0 mm | - | 0 W/m² | - |
| 1777856229 | 14.44° C | 39% | 1011.3 hPa | 0 mm | - | 0 W/m² | - |
| 1777855935 | 14.44° C | 39% | 1011.4 hPa | 0 mm | - | 0 W/m² | - |
| 1777855629 | 14.44° C | 39% | 1011.2 hPa | 0 mm | - | 0 W/m² | - |
* Rain latest hour (hover to see other rain measurements)
** Current wind speed in m/s (hover to see current wind gust speed)